Location: Coopersdale
(40.3556°N, 78.9372°W)
Time: 02:12:13
(UTC+00:00)

Tiros 1 despin weight - Pass Details

Date: 23 January 2021
Orbit: 593 x 642 km, 48.2° (Epoch: 02 March)

Event Time Altitude Azimuth Distance (km) Brightness Sun altitude
Rises 23:09:24 0° 293° (WNW) 2,862 ? -8.9°
Reaches altitude 10° 23:11:56 10° 304° (NW) 1,950 ? -9.4°
Maximum altitude 23:15:55 31° 7° (N) 1,060 ? -10.1°
Enters shadow 23:19:02 15° 64° (ENE) 1,655 ? -10.7°
Drops below altitude 10° 23:19:52 10° 71° (ENE) 1,929 - -10.8°
Sets 23:22:21 0° 82° (E) 2,826 - -11.3°
